This is the latest recevied weather packets stored in our database for station/object KR8N. If no packets are shown the sender has not sent any weather packets the latest 10 day(s).
| Time | Temp. | Humidity | Pressure | Rain* | Wind** | Luminosity | Snow |
|---|---|---|---|---|---|---|---|
| 1777552563 | 8.89° C | 68% | 1016.3 hPa | 0 mm | - | 136 W/m² | - |
| 1777552260 | 8.89° C | 70% | 1016 hPa | 0 mm | - | 115 W/m² | - |
| 1777551956 | 8.89° C | 72% | 1016.1 hPa | 0 mm | - | 110 W/m² | - |
| 1777551654 | 8.89° C | 69% | 1016 hPa | 0 mm | - | 107 W/m² | - |
| 1777551352 | 8.89° C | 69% | 1015.9 hPa | 0 mm | - | 99 W/m² | - |
| 1777551048 | 8.33° C | 69% | 1015.8 hPa | 0 mm | - | 94 W/m² | - |
| 1777550744 | 8.33° C | 72% | 1016.1 hPa | 0 mm | - | 83 W/m² | - |
| 1777550441 | 8.33° C | 75% | 1016.1 hPa | 0 mm | - | 80 W/m² | - |
| 1777550137 | 8.33° C | 77% | 1016.1 hPa | 0 mm | - | 76 W/m² | - |
| 1777549833 | 8.33° C | 78% | 1016.1 hPa | 0 mm | - | 59 W/m² | - |
| 1777549530 | 8.33° C | 79% | 1016.1 hPa | 0 mm | - | 59 W/m² | - |
| 1777549226 | 8.33° C | 79% | 1016 hPa | 0 mm | - | 47 W/m² | - |
| 1777548923 | 8.33° C | 77% | 1016 hPa | 0 mm | - | 45 W/m² | - |
| 1777548620 | 8.33° C | 76% | 1015.8 hPa | 0 mm | - | 39 W/m² | - |
| 1777548317 | 8.33° C | 80% | 1015.7 hPa | 0 mm | - | 31 W/m² | - |
| 1777548015 | 8.33° C | 82% | 1015.7 hPa | 0 mm | - | 29 W/m² | - |
| 1777547709 | 8.33° C | 83% | 1015.3 hPa | 0 mm | - | 22 W/m² | - |
| 1777547406 | 8.33° C | 84% | 1015.5 hPa | 0 mm | - | 14 W/m² | - |
| 1777547104 | 8.33° C | 85% | 1015.1 hPa | 0 mm | - | 10 W/m² | - |
| 1777546801 | 8.33° C | 85% | 1015.1 hPa | 0 mm | - | 11 W/m² | - |
| 1777546497 | 8.33° C | 85% | 1014.7 hPa | 0 mm | - | 8 W/m² | - |
| 1777546195 | 8.33° C | 84% | 1014.5 hPa | 0 mm | - | 8 W/m² | - |
| 1777545891 | 8.33° C | 84% | 1014.3 hPa | 0 mm | - | 7 W/m² | - |
| 1777545588 | 8.89° C | 86% | 1014.3 hPa | 0 mm | - | 5 W/m² | - |
| 1777545284 | 8.89° C | 86% | 1014.1 hPa | 0 mm | - | 4 W/m² | - |
* Rain latest hour (hover to see other rain measurements)
** Current wind speed in m/s (hover to see current wind gust speed)